Regional Weather Roundup
Issued by NWS

Home | Current Version | Previous Version | Graphics & Text | Print | Product List | Glossary Off
Versions: 1 2 3 4 5 6 7 8 9 10 11 12 13 14 15 16 17 18 19 20 21 22 23 24 25 26 27 28 29 30 31 32 33 34 35 36 37 38 39 40 41 42 43 44 45 46 47 48 49 50

000
ASUS43 KFSD 310010
RWRSD

WEATHER ROUNDUP FOR SOUTH DAKOTA
NATIONAL WEATHER SERVICE SIOUX FALLS SD
700 PM CDT THU MAR 30 2017

NOTE: "FAIR" INDICATES FEW OR NO CLOUDS BELOW 12,000 FEET WITH NO
SIGNIFICANT WEATHER AND/OR OBSTRUCTIONS TO VISIBILITY.


SDZ001>005-009-010-012>017-310100-
NORTHWEST AND NORTH CENTRAL SOUTH DAKOTA

CITY           SKY/WX    TMP DP  RH WIND       PRES   REMARKS
BUFFALO          N/A     57  36  45 SE13      29.67R
FAITH            N/A     49  37  63 SE12      29.76R
MOBRIDGE       PTSUNNY   50  34  54 S10       29.80R
$$

SDZ012>016-024>037-041>051-057-063-072>074-310100-
SOUTHWEST AND SOUTH CENTRAL SOUTH DAKOTA

CITY           SKY/WX    TMP DP  RH WIND       PRES   REMARKS
RAPID CTY ARPT CLOUDY    53  36  52 SE12      29.72R
PIERRE         CLOUDY    46  34  62 SE5       29.80S
CUSTER         CLOUDY    45  32  60 E10       29.73S
ELLSWORTH AFB  CLOUDY    52  36  55 E10       29.72R
PHILIP         CLOUDY    47  37  68 E15       29.78R
PINE RIDGE     PTSUNNY   55  33  43 NE10      29.71R
SPEARFISH      FAIR      54  37  54 E12       29.71S
WINNER         CLOUDY    47  36  65 E9        29.80R
$$

SDZ004>011-016>023-039-040-310100-
NORTHEAST SOUTH DAKOTA

CITY           SKY/WX    TMP DP  RH WIND       PRES   REMARKS
ABERDEEN       CLOUDY    46  33  60 E6        29.86R
WATERTOWN      CLOUDY    44  36  73 NE9       29.83R
BROOKINGS      CLOUDY    44  37  76 N8        29.81R
SISSETON         N/A     49  37  63 SE5       29.84S
$$

SDZ017-020-022-023-036>040-048>070-310100-
SOUTHEAST SOUTH DAKOTA

CITY           SKY/WX    TMP DP  RH WIND       PRES   REMARKS
SIOUX FALLS    CLOUDY    44  39  82 NE13      29.81R
HURON          CLOUDY    46  36  68 NE7       29.83R
CHAMBERLAIN    CLOUDY    47  37  65 NE8       29.81S
MITCHELL       CLOUDY    46  36  68 NE10      29.83R
YANKTON        CLOUDY    45  37  76 NE12      29.81R
$$

ABBREVIATIONS USED IN REMARKS
   TC - TEMPERATURE IN CELSIUS
  WCI - WIND CHILL INDEX
   HX - HEAT INDEX
  VSB - VISIBILITY




USA.gov is the U.S. government's official web portal to all federal, state and local government web resources and services.